When you browse on this site, cookies collect data to enhance your experience and personalize the content and advertising you see.
Visit our Privacy Policy to learn more. By continuing to use the site, you agree to this use of cookies and data.
  • In Latvia
  • List of Countries
  • For 7 days
  • Water Temperature
  • Weather Map
  • Weather Widgets
  • user-avatar
    Login

    Hourly Weather Austin

    Today, 30 May, Saturday

    Time Temperature Precipitation Wind Pressure Humidity
    00:00 +22°C° 0 mm 3 mps 747 mmHg 66%
    01:00 +21°C° 0 mm 3 mps 747 mmHg 68%
    02:00 +21°C° 0 mm 3 mps 747 mmHg 69%
    03:00 +21°C° 0 mm 3 mps 747 mmHg 73%
    04:00 +20°C° 0 mm 3 mps 747 mmHg 77%
    05:00 +20°C° 0 mm 3 mps 747 mmHg 81%
    06:00 +22°C° 0 mm 3 mps 747 mmHg 74%
    07:00 +25°C° 0 mm 3 mps 747 mmHg 67%
    08:00 +27°C° 0 mm 3 mps 747 mmHg 60%
    09:00 +28°C° 0 mm 3 mps 747 mmHg 54%
    10:00 +29°C° 0 mm 3 mps 747 mmHg 47%
    11:00 +31°C° 0 mm 3 mps 747 mmHg 40%
    12:00 +32°C° 0 mm 4 mps 746 mmHg 39%
    13:00 +33°C° 0 mm 4 mps 746 mmHg 39%
    14:00 +33°C° 0 mm 4 mps 745 mmHg 38%
    15:00 +32°C° 0 mm 4 mps 745 mmHg 43%
    16:00 +30°C° 0 mm 4 mps 745 mmHg 48%
    17:00 +29°C° 0 mm 3 mps 745 mmHg 52%
    18:00 +28°C° 0 mm 3 mps 745 mmHg 56%
    19:00 +26°C° 0 mm 3 mps 745 mmHg 59%
    20:00 +25°C° 0 mm 2 mps 745 mmHg 63%
    21:00 +24°C° 0 mm 2 mps 746 mmHg 64%
    22:00 +24°C° 0 mm 2 mps 746 mmHg 66%
    23:00 +23°C° 0 mm 2 mps 746 mmHg 67%

    Tomorrow, 31 May, Sunday

    Time Temperature Precipitation Wind Pressure Humidity
    00:00 +23°C° 0 mm 2 mps 746 mmHg 69%
    01:00 +23°C° 0 mm 2 mps 746 mmHg 71%
    02:00 +21°C° 0 mm 2 mps 746 mmHg 74%
    03:00 +21°C° 0 mm 2 mps 746 mmHg 75%
    04:00 +21°C° 0 mm 3 mps 746 mmHg 76%
    05:00 +20°C° 0 mm 3 mps 746 mmHg 77%
    06:00 +22°C° 0 mm 3 mps 747 mmHg 74%
    07:00 +25°C° 0 mm 3 mps 747 mmHg 70%
    08:00 +26°C° 0 mm 3 mps 747 mmHg 66%
    09:00 +28°C° 0.1 mm 3 mps 747 mmHg 63%
    10:00 +29°C° 0.1 mm 4 mps 747 mmHg 60%
    11:00 +30°C° 0.1 mm 4 mps 747 mmHg 57%
    12:00 +30°C° 1.2 mm 4 mps 746 mmHg 59%
    13:00 +30°C° 1.2 mm 4 mps 746 mmHg 61%
    14:00 +30°C° 1.2 mm 4 mps 746 mmHg 63%
    15:00 +28°C° 1.6 mm 4 mps 746 mmHg 70%
    16:00 +27°C° 1.6 mm 4 mps 745 mmHg 77%
    17:00 +25°C° 1.6 mm 4 mps 745 mmHg 84%
    18:00 +25°C° 0.5 mm 3 mps 746 mmHg 86%
    19:00 +24°C° 0.5 mm 2 mps 746 mmHg 88%
    20:00 +23°C° 0.5 mm 2 mps 746 mmHg 90%
    21:00 +23°C° 0.4 mm 2 mps 746 mmHg 90%
    22:00 +23°C° 0.4 mm 1 mps 746 mmHg 90%
    23:00 +23°C° 0.4 mm 1 mps 746 mmHg 90%

    Day after tomorrow, 1 June, Monday

    Time Temperature Precipitation Wind Pressure Humidity
    00:00 +23°C° 0 mm 1 mps 746 mmHg 89%
    01:00 +23°C° 0 mm 1 mps 746 mmHg 88%
    02:00 +23°C° 0 mm 1 mps 746 mmHg 87%
    03:00 +23°C° 0 mm 1 mps 746 mmHg 87%
    04:00 +23°C° 0 mm 1 mps 746 mmHg 88%
    05:00 +23°C° 0 mm 1 mps 746 mmHg 88%
    06:00 +24°C° 0 mm 1 mps 747 mmHg 82%
    07:00 +26°C° 0 mm 2 mps 747 mmHg 75%
    08:00 +27°C° 0 mm 2 mps 748 mmHg 69%
    09:00 +29°C° 0 mm 2 mps 747 mmHg 64%
    10:00 +30°C° 0 mm 3 mps 747 mmHg 59%
    11:00 +31°C° 0 mm 3 mps 747 mmHg 54%
    12:00 +31°C° 0.1 mm 3 mps 747 mmHg 55%
    13:00 +32°C° 0.1 mm 4 mps 746 mmHg 56%
    14:00 +33°C° 0.1 mm 4 mps 746 mmHg 57%
    15:00 +32°C° 0.3 mm 5 mps 745 mmHg 61%
    16:00 +30°C° 0.3 mm 5 mps 745 mmHg 65%
    17:00 +29°C° 0.3 mm 5 mps 745 mmHg 69%
    18:00 +28°C° 0 mm 4 mps 745 mmHg 73%
    19:00 +26°C° 0 mm 4 mps 746 mmHg 78%
    20:00 +25°C° 0 mm 3 mps 746 mmHg 82%
    21:00 +25°C° 0 mm 3 mps 746 mmHg 84%
    22:00 +24°C° 0 mm 2 mps 746 mmHg 86%
    23:00 +24°C° 0 mm 2 mps 746 mmHg 89%

    2 June, Tuesday

    Time Temperature Precipitation Wind Pressure Humidity
    00:00 +24°C° 0 mm 2 mps 746 mmHg 90%
    01:00 +24°C° 0 mm 2 mps 746 mmHg 92%
    02:00 +23°C° 0 mm 1 mps 746 mmHg 94%
    03:00 +23°C° 0 mm 1 mps 746 mmHg 94%
    04:00 +23°C° 0 mm 1 mps 746 mmHg 94%
    05:00 +23°C° 0 mm 1 mps 746 mmHg 95%
    06:00 +25°C° 0 mm 2 mps 746 mmHg 88%
    07:00 +27°C° 0 mm 2 mps 747 mmHg 81%
    08:00 +28°C° 0 mm 3 mps 747 mmHg 74%
    09:00 +30°C° 0 mm 3 mps 747 mmHg 67%
    10:00 +32°C° 0 mm 4 mps 747 mmHg 60%
    11:00 +33°C° 0 mm 4 mps 747 mmHg 53%
    12:00 +34°C° 0.1 mm 4 mps 746 mmHg 53%
    13:00 +34°C° 0.1 mm 5 mps 745 mmHg 53%
    14:00 +34°C° 0.1 mm 5 mps 745 mmHg 53%
    15:00 +33°C° 0.1 mm 5 mps 745 mmHg 55%
    16:00 +33°C° 0.1 mm 4 mps 745 mmHg 58%
    17:00 +32°C° 0.1 mm 4 mps 744 mmHg 61%
    18:00 +30°C° 0.1 mm 4 mps 745 mmHg 67%
    19:00 +29°C° 0.1 mm 4 mps 745 mmHg 72%
    20:00 +27°C° 0.1 mm 4 mps 746 mmHg 78%
    21:00 +26°C° 0.1 mm 4 mps 746 mmHg 80%
    22:00 +26°C° 0.1 mm 4 mps 746 mmHg 83%
    23:00 +25°C° 0.1 mm 3 mps 746 mmHg 85%

    3 June, Wednesday

    Time Temperature Precipitation Wind Pressure Humidity
    00:00 +24°C° 0 mm 3 mps 746 mmHg 87%
    01:00 +24°C° 0 mm 2 mps 745 mmHg 89%
    02:00 +23°C° 0 mm 2 mps 745 mmHg 91%
    03:00 +23°C° 0 mm 2 mps 745 mmHg 92%
    04:00 +23°C° 0 mm 2 mps 745 mmHg 94%
    05:00 +23°C° 0 mm 1 mps 745 mmHg 95%
    06:00 +24°C° 0 mm 2 mps 745 mmHg 90%
    07:00 +26°C° 0 mm 2 mps 746 mmHg 84%
    08:00 +27°C° 0 mm 2 mps 746 mmHg 79%
    09:00 +29°C° 0 mm 2 mps 746 mmHg 72%
    10:00 +30°C° 0 mm 3 mps 746 mmHg 65%
    11:00 +33°C° 0 mm 3 mps 746 mmHg 58%
    12:00 +33°C° 0 mm 3 mps 745 mmHg 56%
    13:00 +34°C° 0 mm 4 mps 744 mmHg 55%
    14:00 +34°C° 0 mm 4 mps 744 mmHg 53%
    15:00 +34°C° 0 mm 4 mps 744 mmHg 56%
    16:00 +33°C° 0 mm 4 mps 743 mmHg 58%
    17:00 +33°C° 0 mm 4 mps 743 mmHg 61%
    18:00 +30°C° 0.1 mm 4 mps 743 mmHg 68%
    19:00 +29°C° 0.1 mm 4 mps 744 mmHg 75%
    20:00 +27°C° 0.1 mm 3 mps 744 mmHg 82%
    21:00 +27°C° 0 mm 4 mps 744 mmHg 84%
    22:00 +26°C° 0 mm 4 mps 744 mmHg 87%
    23:00 +26°C° 0 mm 4 mps 744 mmHg 89%

    4 June, Thursday

    Time Temperature Precipitation Wind Pressure Humidity
    00:00 +25°C° 0 mm 3 mps 744 mmHg 91%
    01:00 +25°C° 0 mm 3 mps 744 mmHg 92%
    02:00 +24°C° 0 mm 2 mps 744 mmHg 94%
    03:00 +25°C° 0 mm 2 mps 744 mmHg 94%
    04:00 +25°C° 0 mm 2 mps 744 mmHg 94%
    05:00 +25°C° 0 mm 2 mps 744 mmHg 94%
    06:00 +26°C° 0 mm 2 mps 744 mmHg 88%
    07:00 +27°C° 0 mm 2 mps 745 mmHg 83%
    08:00 +28°C° 0 mm 2 mps 745 mmHg 78%
    09:00 +29°C° 0 mm 3 mps 745 mmHg 72%
    10:00 +30°C° 0 mm 3 mps 745 mmHg 66%
    11:00 +31°C° 0 mm 3 mps 745 mmHg 60%
    12:00 +33°C° 0 mm 3 mps 744 mmHg 56%
    13:00 +34°C° 0 mm 3 mps 743 mmHg 52%
    14:00 +35°C° 0 mm 3 mps 743 mmHg 48%
    15:00 +35°C° 0 mm 3 mps 743 mmHg 50%
    16:00 +34°C° 0 mm 4 mps 742 mmHg 51%
    17:00 +34°C° 0 mm 4 mps 742 mmHg 53%
    18:00 +32°C° 0 mm 4 mps 742 mmHg 61%
    19:00 +29°C° 0 mm 4 mps 743 mmHg 68%
    20:00 +28°C° 0 mm 5 mps 743 mmHg 76%
    21:00 +27°C° 0 mm 4 mps 743 mmHg 80%
    22:00 +26°C° 0 mm 4 mps 744 mmHg 84%
    23:00 +26°C° 0 mm 4 mps 744 mmHg 88%
    Show more